User: anonymous   Login
Location: Albany
(35.0000°S, 118.0000°E)
Time: 16:31:08
(UTC-05:00)
Language:

SJ-6B - Orbit

View from above orbital plane
View from above orbital plane
View from above satellite
View from above satellite

Ground track
Ground track

The orbit data is extracted from the following two-line orbital elements,

1 28415U 04035C   14354.53211476  .00007419  00000-0  53260-3 0  3712
2 28415 097.7972 000.3969 0054667 323.4733 036.2768 15.03397311561730
Epoch (UTC): 20 December 2014 12:46:14
Eccentricity: 0.0054667
inclination: 97.7972°
perigee height: 518 km
apogee height: 594 km
right ascension of ascending node: 0.3969°
argument of perigee: 323.4733°
revolutions per day: 15.03397311
mean anomaly at epoch: 36.2768°
orbit number at epoch: 56173

The dashed part of the orbit path shows where the satellite is in the earth's shadow,  

DLR